Time,TemperatureF,DewpointF,PressureIn,WindDirection,WindDirectionDegrees,WindSpeedMPH,WindSpeedGustMPH,Humidity,HourlyPrecipIn,Conditions,Clouds,dailyrainin,SoftwareType,DateUTC
2013-02-23 00:03:00,51.0,-99.9,30.04,NE,34,15.0,16.0,-999,-99.99,,,-99.99,,2013-02-23 05:03:00,
2013-02-23 00:12:00,51.0,-99.9,30.04,NNE,21,12.0,13.0,-999,-99.99,,,-99.99,,2013-02-23 05:12:00,
2013-02-23 00:23:00,52.0,-99.9,30.04,NE,35,12.0,13.0,-999,-99.99,,,-99.99,,2013-02-23 05:23:00,
2013-02-23 00:33:00,53.0,-99.9,30.03,NE,41,10.0,12.0,-999,-99.99,,,-99.99,,2013-02-23 05:33:00,
2013-02-23 00:42:00,53.0,-99.9,30.03,NNE,32,6.0,7.0,-999,-99.99,,,-99.99,,2013-02-23 05:42:00,
2013-02-23 00:52:00,54.0,-99.9,30.02,NNE,29,8.0,10.0,-999,-99.99,,,-99.99,,2013-02-23 05:52:00,
2013-02-23 01:02:00,55.0,-99.9,30.02,ENE,66,7.0,8.0,-999,-99.99,,,-99.99,,2013-02-23 06:02:00,
2013-02-23 01:11:00,55.0,-99.9,30.01,NNE,15,6.0,8.0,-999,-99.99,,,-99.99,,2013-02-23 06:11:00,
2013-02-23 01:23:00,55.0,-99.9,30.01,NNE,28,6.0,8.0,-999,-99.99,,,-99.99,,2013-02-23 06:23:00,
2013-02-23 01:32:00,55.0,-99.9,30.01,NNW,348,7.0,9.0,-999,-99.99,,,-99.99,,2013-02-23 06:32:00,
2013-02-23 01:42:00,55.0,-99.9,30.00,NNW,338,6.0,7.0,-999,-99.99,,,-99.99,,2013-02-23 06:42:00,
2013-02-23 01:52:00,55.0,-99.9,30.00,NNW,329,8.0,9.0,-999,-99.99,,,-99.99,,2013-02-23 06:52:00,
2013-02-23 02:01:00,54.0,-99.9,29.99,NNW,331,6.0,8.0,-999,-99.99,,,-99.99,,2013-02-23 07:01:00,
2013-02-23 02:11:00,51.0,-99.9,29.99,NNW,332,9.0,11.0,-999,-99.99,,,-99.99,,2013-02-23 07:11:00,
2013-02-23 02:21:00,50.0,-99.9,29.98,NW,323,9.0,11.0,-999,-99.99,,,-99.99,,2013-02-23 07:21:00,
2013-02-23 02:32:00,49.0,-99.9,29.99,NW,320,11.0,14.0,-999,-99.99,,,-99.99,,2013-02-23 07:32:00,
2013-02-23 02:42:00,49.0,-99.9,29.98,NW,322,10.0,13.0,-999,-99.99,,,-99.99,,2013-02-23 07:42:00,
2013-02-23 02:52:00,48.0,-99.9,29.98,NW,321,10.0,14.0,-999,-99.99,,,-99.99,,2013-02-23 07:52:00,
2013-02-23 03:01:00,48.0,-99.9,29.98,NNW,327,11.0,13.0,-999,-99.99,,,-99.99,,2013-02-23 08:01:00,
2013-02-23 03:11:00,48.0,-99.9,29.97,NW,326,9.0,12.0,-999,-99.99,,,-99.99,,2013-02-23 08:11:00,
2013-02-23 03:21:00,48.0,-99.9,29.97,NNW,327,9.0,12.0,-999,-99.99,,,-99.99,,2013-02-23 08:21:00,
2013-02-23 03:32:00,48.0,-99.9,29.96,NNW,329,9.0,11.0,-999,-99.99,,,-99.99,,2013-02-23 08:32:00,
2013-02-23 03:42:00,47.0,-99.9,29.95,NNW,331,8.0,10.0,-999,-99.99,,,-99.99,,2013-02-23 08:42:00,
2013-02-23 03:53:00,47.0,-99.9,29.95,NNW,334,7.0,9.0,-999,-99.99,,,-99.99,,2013-02-23 08:53:00,
2013-02-23 04:02:00,47.0,-99.9,29.94,NW,320,6.0,8.0,-999,-99.99,,,-99.99,,2013-02-23 09:02:00,
2013-02-23 04:11:00,47.0,-99.9,29.94,NW,318,8.0,10.0,-999,-99.99,,,-99.99,,2013-02-23 09:11:00,
2013-02-23 04:22:00,47.0,-99.9,29.94,NW,319,8.0,11.0,-999,-99.99,,,-99.99,,2013-02-23 09:22:00,
2013-02-23 04:32:00,47.0,-99.9,29.94,NW,312,8.0,10.0,-999,-99.99,,,-99.99,,2013-02-23 09:32:00,
2013-02-23 04:42:00,47.0,-99.9,29.94,NW,324,6.0,8.0,-999,-99.99,,,-99.99,,2013-02-23 09:42:00,
2013-02-23 04:52:00,47.0,-99.9,29.94,NW,325,5.0,7.0,-999,-99.99,,,-99.99,,2013-02-23 09:52:00,
2013-02-23 05:01:00,47.0,-99.9,29.94,NNW,327,5.0,6.0,-999,-99.99,,,-99.99,,2013-02-23 10:01:00,
2013-02-23 05:11:00,47.0,-99.9,29.94,WNW,299,5.0,7.0,-999,-99.99,,,-99.99,,2013-02-23 10:11:00,
2013-02-23 05:21:00,47.0,-99.9,29.94,NW,310,6.0,9.0,-999,-99.99,,,-99.99,,2013-02-23 10:21:00,
2013-02-23 05:32:00,47.0,-99.9,29.93,NW,322,6.0,9.0,-999,-99.99,,,-99.99,,2013-02-23 10:32:00,
2013-02-23 05:42:00,46.0,-99.9,29.93,NW,317,5.0,8.0,-999,-99.99,,,-99.99,,2013-02-23 10:42:00,
2013-02-23 05:52:00,46.0,-99.9,29.93,NNW,328,6.0,8.0,-999,-99.99,,,-99.99,,2013-02-23 10:52:00,
2013-02-23 06:02:00,46.0,-99.9,29.94,NW,318,6.0,8.0,-999,-99.99,,,-99.99,,2013-02-23 11:02:00,
2013-02-23 06:11:00,46.0,-99.9,29.94,NW,319,6.0,9.0,-999,-99.99,,,-99.99,,2013-02-23 11:11:00,
2013-02-23 06:22:00,46.0,-99.9,29.94,NW,315,5.0,7.0,-999,-99.99,,,-99.99,,2013-02-23 11:22:00,
2013-02-23 06:32:00,46.0,-99.9,29.94,NW,310,8.0,10.0,-999,-99.99,,,-99.99,,2013-02-23 11:32:00,
2013-02-23 06:42:00,46.0,-99.9,29.94,NW,323,11.0,13.0,-999,-99.99,,,-99.99,,2013-02-23 11:42:00,
2013-02-23 06:53:00,46.0,-99.9,29.94,NW,319,11.0,14.0,-999,-99.99,,,-99.99,,2013-02-23 11:53:00,
2013-02-23 07:02:00,45.0,-99.9,29.95,NW,316,11.0,15.0,-999,-99.99,,,-99.99,,2013-02-23 12:02:00,
2013-02-23 07:11:00,45.0,-99.9,29.95,NW,319,10.0,13.0,-999,-99.99,,,-99.99,,2013-02-23 12:11:00,
2013-02-23 07:22:00,45.0,-99.9,29.95,NNW,330,7.0,11.0,-999,-99.99,,,-99.99,,2013-02-23 12:22:00,
2013-02-23 07:32:00,45.0,-99.9,29.95,NW,325,9.0,11.0,-999,-99.99,,,-99.99,,2013-02-23 12:32:00,
2013-02-23 07:42:00,45.0,-99.9,29.96,NW,316,7.0,10.0,-999,-99.99,,,-99.99,,2013-02-23 12:42:00,
2013-02-23 07:53:00,45.0,-99.9,29.96,NW,321,6.0,9.0,-999,-99.99,,,-99.99,,2013-02-23 12:53:00,
2013-02-23 08:02:00,45.0,-99.9,29.96,NNW,330,8.0,10.0,-999,-99.99,,,-99.99,,2013-02-23 13:02:00,
2013-02-23 08:12:00,45.0,-99.9,29.96,NNW,331,6.0,9.0,-999,-99.99,,,-99.99,,2013-02-23 13:12:00,
2013-02-23 08:22:00,45.0,-99.9,29.96,NW,324,9.0,11.0,-999,-99.99,,,-99.99,,2013-02-23 13:22:00,
2013-02-23 08:32:00,45.0,-99.9,29.96,NNW,334,8.0,13.0,-999,-99.99,,,-99.99,,2013-02-23 13:32:00,
2013-02-23 08:42:00,45.0,-99.9,29.96,NNW,332,7.0,9.0,-999,-99.99,,,-99.99,,2013-02-23 13:42:00,
2013-02-23 08:52:00,45.0,-99.9,29.96,NNW,332,9.0,11.0,-999,-99.99,,,-99.99,,2013-02-23 13:52:00,
2013-02-23 09:02:00,45.0,-99.9,29.95,NNW,335,9.0,12.0,-999,-99.99,,,-99.99,,2013-02-23 14:02:00,
2013-02-23 09:11:00,44.0,-99.9,29.94,NNW,335,13.0,18.0,-999,-99.99,,,-99.99,,2013-02-23 14:11:00,
2013-02-23 09:22:00,44.0,-99.9,29.93,North,350,10.0,13.0,-999,-99.99,,,-99.99,,2013-02-23 14:22:00,
2013-02-23 09:33:00,45.0,-99.9,29.93,North,355,10.0,13.0,-999,-99.99,,,-99.99,,2013-02-23 14:33:00,
2013-02-23 09:42:00,45.0,-99.9,29.93,North,351,10.0,11.0,-999,-99.99,,,-99.99,,2013-02-23 14:42:00,
2013-02-23 09:52:00,45.0,-99.9,29.93,North,351,7.0,9.0,-999,-99.99,,,-99.99,,2013-02-23 14:52:00,
2013-02-23 10:02:00,45.0,-99.9,29.93,North,9,6.0,8.0,-999,-99.99,,,-99.99,,2013-02-23 15:02:00,
2013-02-23 10:11:00,45.0,-99.9,29.93,North,359,6.0,7.0,-999,-99.99,,,-99.99,,2013-02-23 15:11:00,
2013-02-23 10:22:00,45.0,-99.9,29.93,NNW,329,8.0,10.0,-999,-99.99,,,-99.99,,2013-02-23 15:22:00,
2013-02-23 10:32:00,45.0,-99.9,29.93,NNW,337,6.0,7.0,-999,-99.99,,,-99.99,,2013-02-23 15:32:00,
2013-02-23 10:42:00,45.0,-99.9,29.93,NNW,340,5.0,6.0,-999,-99.99,,,-99.99,,2013-02-23 15:42:00,
2013-02-23 10:52:00,45.0,-99.9,29.93,North,354,4.0,6.0,-999,-99.99,,,-99.99,,2013-02-23 15:52:00,
2013-02-23 11:01:00,45.0,-99.9,29.91,NE,39,7.0,9.0,-999,-99.99,,,-99.99,,2013-02-23 16:01:00,
2013-02-23 11:11:00,45.0,-99.9,29.91,NNE,17,6.0,7.0,-999,-99.99,,,-99.99,,2013-02-23 16:11:00,
2013-02-23 11:22:00,45.0,-99.9,29.91,NE,36,5.0,6.0,-999,-99.99,,,-99.99,,2013-02-23 16:22:00,
2013-02-23 11:32:00,46.0,-99.9,29.90,NE,36,6.0,7.0,-999,-99.99,,,-99.99,,2013-02-23 16:32:00,
2013-02-23 11:42:00,46.0,-99.9,29.90,NE,41,6.0,7.0,-999,-99.99,,,-99.99,,2013-02-23 16:42:00,
2013-02-23 11:52:00,45.0,-99.9,29.90,NNE,25,7.0,9.0,-999,-99.99,,,-99.99,,2013-02-23 16:52:00,
2013-02-23 12:01:00,46.0,-99.9,29.90,NNW,341,5.0,7.0,-999,-99.99,,,-99.99,,2013-02-23 17:01:00,
2013-02-23 12:11:00,46.0,-99.9,29.89,NNW,347,5.0,10.0,-999,-99.99,,,-99.99,,2013-02-23 17:11:00,
2013-02-23 12:22:00,46.0,-99.9,29.90,NNW,337,4.0,8.0,-999,-99.99,,,-99.99,,2013-02-23 17:22:00,
2013-02-23 12:32:00,47.0,-99.9,29.89,North,9,2.0,3.0,-999,-99.99,,,-99.99,,2013-02-23 17:32:00,
2013-02-23 12:42:00,47.0,-99.9,29.88,NNW,333,1.0,1.0,-999,-99.99,,,-99.99,,2013-02-23 17:42:00,
2013-02-23 12:52:00,47.0,-99.9,29.88,North,2,0.0,1.0,-999,-99.99,,,-99.99,,2013-02-23 17:52:00,
2013-02-23 13:02:00,47.0,-99.9,29.88,NW,315,4.0,5.0,-999,-99.99,,,-99.99,,2013-02-23 18:02:00,
2013-02-23 13:12:00,47.0,-99.9,29.88,WNW,300,3.0,4.0,-999,-99.99,,,-99.99,,2013-02-23 18:12:00,
2013-02-23 13:22:00,47.0,-99.9,29.88,West,265,4.0,6.0,-999,-99.99,,,-99.99,,2013-02-23 18:22:00,
2013-02-23 13:32:00,47.0,-99.9,29.87,West,260,7.0,9.0,-999,-99.99,,,-99.99,,2013-02-23 18:32:00,
2013-02-23 13:42:00,48.0,-99.9,29.87,West,270,5.0,7.0,-999,-99.99,,,-99.99,,2013-02-23 18:42:00,
2013-02-23 13:52:00,48.0,-99.9,29.87,West,278,5.0,7.0,-999,-99.99,,,-99.99,,2013-02-23 18:52:00,
2013-02-23 14:01:00,47.0,-99.9,29.85,WNW,292,5.0,7.0,-999,-99.99,,,-99.99,,2013-02-23 19:01:00,
2013-02-23 14:12:00,48.0,-99.9,29.86,WNW,300,6.0,9.0,-999,-99.99,,,-99.99,,2013-02-23 19:12:00,
2013-02-23 14:22:00,47.0,-99.9,29.87,NW,305,9.0,13.0,-999,-99.99,,,-99.99,,2013-02-23 19:22:00,
2013-02-23 14:32:00,47.0,-99.9,29.87,NW,309,7.0,10.0,-999,-99.99,,,-99.99,,2013-02-23 19:32:00,
2013-02-23 14:42:00,47.0,-99.9,29.86,WNW,296,8.0,11.0,-999,-99.99,,,-99.99,,2013-02-23 19:42:00,
2013-02-23 14:52:00,47.0,-99.9,29.84,WNW,289,3.0,4.0,-999,-99.99,,,-99.99,,2013-02-23 19:52:00,
2013-02-23 15:01:00,48.0,-99.9,29.85,WNW,284,4.0,6.0,-999,-99.99,,,-99.99,,2013-02-23 20:01:00,
2013-02-23 15:11:00,48.0,-99.9,29.85,West,277,6.0,8.0,-999,-99.99,,,-99.99,,2013-02-23 20:11:00,
2013-02-23 15:22:00,49.0,-99.9,29.85,West,270,4.0,6.0,-999,-99.99,,,-99.99,,2013-02-23 20:22:00,
2013-02-23 15:32:00,50.0,-99.9,29.84,NW,310,2.0,2.0,-999,-99.99,,,-99.99,,2013-02-23 20:32:00,
2013-02-23 15:42:00,50.0,-99.9,29.84,NW,305,4.0,7.0,-999,-99.99,,,-99.99,,2013-02-23 20:42:00,
2013-02-23 15:53:00,50.0,-99.9,29.83,NW,311,6.0,7.0,-999,-99.99,,,-99.99,,2013-02-23 20:53:00,
2013-02-23 16:02:00,50.0,-99.9,29.83,NW,323,5.0,7.0,-999,-99.99,,,-99.99,,2013-02-23 21:02:00,
2013-02-23 16:12:00,49.0,-99.9,29.84,NW,314,7.0,10.0,-999,-99.99,,,-99.99,,2013-02-23 21:12:00,
2013-02-23 16:22:00,49.0,-99.9,29.83,WNW,301,4.0,8.0,-999,-99.99,,,-99.99,,2013-02-23 21:22:00,
2013-02-23 16:32:00,49.0,-99.9,29.83,WNW,301,5.0,7.0,-999,-99.99,,,-99.99,,2013-02-23 21:32:00,
2013-02-23 16:42:00,49.0,-99.9,29.82,NW,315,5.0,6.0,-999,-99.99,,,-99.99,,2013-02-23 21:42:00,
2013-02-23 16:52:00,49.0,-99.9,29.83,WNW,303,5.0,8.0,-999,-99.99,,,-99.99,,2013-02-23 21:52:00,
2013-02-23 17:02:00,49.0,-99.9,29.83,NW,313,8.0,10.0,-999,-99.99,,,-99.99,,2013-02-23 22:02:00,
2013-02-23 17:11:00,49.0,-99.9,29.83,NW,319,7.0,9.0,-999,-99.99,,,-99.99,,2013-02-23 22:11:00,
2013-02-23 17:22:00,49.0,-99.9,29.81,North,356,3.0,5.0,-999,-99.99,,,-99.99,,2013-02-23 22:22:00,
2013-02-23 17:32:00,49.0,-99.9,29.82,NW,322,6.0,8.0,-999,-99.99,,,-99.99,,2013-02-23 22:32:00,
2013-02-23 17:42:00,49.0,-99.9,29.83,NW,304,5.0,8.0,-999,-99.99,,,-99.99,,2013-02-23 22:42:00,
2013-02-23 17:52:00,48.0,-99.9,29.81,NNW,341,6.0,8.0,-999,-99.99,,,-99.99,,2013-02-23 22:52:00,
2013-02-23 18:02:00,49.0,-99.9,29.82,NW,313,4.0,6.0,-999,-99.99,,,-99.99,,2013-02-23 23:02:00,
2013-02-23 18:11:00,48.0,-99.9,29.82,NW,326,8.0,9.0,-999,-99.99,,,-99.99,,2013-02-23 23:11:00,
2013-02-23 18:22:00,48.0,-99.9,29.83,NNW,331,6.0,7.0,-999,-99.99,,,-99.99,,2013-02-23 23:22:00,
2013-02-23 18:32:00,48.0,-99.9,29.83,NNW,327,7.0,10.0,-999,-99.99,,,-99.99,,2013-02-23 23:32:00,
2013-02-23 18:42:00,48.0,-99.9,29.81,North,350,5.0,6.0,-999,-99.99,,,-99.99,,2013-02-23 23:42:00,
2013-02-23 18:52:00,48.0,-99.9,29.83,NNW,332,8.0,10.0,-999,-99.99,,,-99.99,,2013-02-23 23:52:00,
2013-02-23 19:02:00,48.0,-99.9,29.80,NNE,25,4.0,6.0,-999,-99.99,,,-99.99,,2013-02-24 00:02:00,
2013-02-23 19:11:00,48.0,-99.9,29.83,WNW,300,4.0,5.0,-999,-99.99,,,-99.99,,2013-02-24 00:11:00,
2013-02-23 19:22:00,48.0,-99.9,29.84,SW,236,4.0,4.0,-999,-99.99,,,-99.99,,2013-02-24 00:22:00,
2013-02-23 19:32:00,48.0,-99.9,29.84,WNW,301,4.0,5.0,-999,-99.99,,,-99.99,,2013-02-24 00:32:00,
2013-02-23 19:42:00,48.0,-99.9,29.84,WNW,301,2.0,4.0,-999,-99.99,,,-99.99,,2013-02-24 00:42:00,
2013-02-23 19:52:00,48.0,-99.9,29.83,West,278,2.0,2.0,-999,-99.99,,,-99.99,,2013-02-24 00:52:00,
2013-02-23 20:01:00,49.0,-99.9,29.84,West,270,3.0,4.0,-999,-99.99,,,-99.99,,2013-02-24 01:01:00,
2013-02-23 20:11:00,49.0,-99.9,29.85,NW,319,4.0,6.0,-999,-99.99,,,-99.99,,2013-02-24 01:11:00,
2013-02-23 20:22:00,49.0,-99.9,29.86,NW,313,5.0,6.0,-999,-99.99,,,-99.99,,2013-02-24 01:22:00,
2013-02-23 20:32:00,49.0,-99.9,29.86,NW,309,5.0,6.0,-999,-99.99,,,-99.99,,2013-02-24 01:32:00,
2013-02-23 20:42:00,48.0,-99.9,29.85,West,266,2.0,3.0,-999,-99.99,,,-99.99,,2013-02-24 01:42:00,
2013-02-23 20:52:00,48.0,-99.9,29.85,NNW,330,2.0,3.0,-999,-99.99,,,-99.99,,2013-02-24 01:52:00,
2013-02-23 21:01:00,48.0,-99.9,29.83,SSE,165,3.0,3.0,-999,-99.99,,,-99.99,,2013-02-24 02:01:00,
2013-02-23 21:12:00,48.0,-99.9,29.83,North,-999,-999.0,-999.0,-999,-99.99,,,-99.99,,2013-02-24 02:12:00,
2013-02-23 21:22:00,48.0,-99.9,29.84,WSW,248,1.0,2.0,-999,-99.99,,,-99.99,,2013-02-24 02:22:00,
2013-02-23 21:32:00,49.0,-99.9,29.85,SW,222,4.0,5.0,-999,-99.99,,,-99.99,,2013-02-24 02:32:00,
2013-02-23 21:42:00,49.0,-99.9,29.86,SW,229,6.0,7.0,-999,-99.99,,,-99.99,,2013-02-24 02:42:00,
2013-02-23 21:52:00,49.0,-99.9,29.85,WSW,241,2.0,4.0,-999,-99.99,,,-99.99,,2013-02-24 02:52:00,
2013-02-23 22:02:00,49.0,-99.9,29.85,NNW,330,8.0,11.0,-999,-99.99,,,-99.99,,2013-02-24 03:02:00,
2013-02-23 22:12:00,49.0,-99.9,29.87,NW,310,6.0,9.0,-999,-99.99,,,-99.99,,2013-02-24 03:12:00,
2013-02-23 22:22:00,49.0,-99.9,29.87,NW,322,7.0,10.0,-999,-99.99,,,-99.99,,2013-02-24 03:22:00,
2013-02-23 22:32:00,48.0,-99.9,29.88,NW,312,10.0,13.0,-999,-99.99,,,-99.99,,2013-02-24 03:32:00,
2013-02-23 22:42:00,48.0,-99.9,29.87,NW,316,6.0,10.0,-999,-99.99,,,-99.99,,2013-02-24 03:42:00,
2013-02-23 22:52:00,48.0,-99.9,29.83,South,172,9.0,10.0,-999,-99.99,,,-99.99,,2013-02-24 03:52:00,
2013-02-23 23:02:00,48.0,-99.9,29.85,WNW,288,2.0,3.0,-999,-99.99,,,-99.99,,2013-02-24 04:02:00,
2013-02-23 23:11:00,48.0,-99.9,29.85,WNW,287,4.0,6.0,-999,-99.99,,,-99.99,,2013-02-24 04:11:00,
2013-02-23 23:22:00,48.0,-99.9,29.85,SW,234,2.0,3.0,-999,-99.99,,,-99.99,,2013-02-24 04:22:00,
2013-02-23 23:32:00,48.0,-99.9,29.85,West,276,6.0,7.0,-999,-99.99,,,-99.99,,2013-02-24 04:32:00,
2013-02-23 23:42:00,48.0,-99.9,29.85,WNW,292,6.0,8.0,-999,-99.99,,,-99.99,,2013-02-24 04:42:00,
2013-02-23 23:52:00,48.0,-99.9,29.85,WSW,253,6.0,8.0,-999,-99.99,,,-99.99,,2013-02-24 04:52:00,